User: anonymous   Login
Location: Unspecified
(0.0000°N, 0.0000°E)
Time: 08:36:19
(UTC+00:00)
Language:

Oscar 10/S400 - Orbit

View from above orbital plane
View from above orbital plane
View from above satellite
View from above satellite

Ground track
Ground track

The orbit data is extracted from the following two-line orbital elements,

1 14129U 83058B   17292.26452330 -.00000221 +00000-0 +00000-0 0  9993
2 14129 027.1451 014.3056 6024048 338.7399 015.5196 02.05867342230384
Epoch (UTC): 19 October 2017 06:20:54
Eccentricity: 0.6024048
inclination: 27.1451°
perigee height: 4000 km
apogee height: 35448 km
right ascension of ascending node: 14.3056°
argument of perigee: 338.7399°
revolutions per day: 2.05867342
mean anomaly at epoch: 15.5196°
orbit number at epoch: 23038

The dashed part of the orbit path shows where the satellite is in the earth's shadow,  

DLR